Orbital Elements at Epoch 2459200.5 (2020-Dec-17.0) TDB
Reference: JPL 25 (heliocentric ecliptic J2000)
Element | Value | Uncertainty (1-sigma) | Units |
e | .1654808224659609 | 3.1212e-08 | |
a | 2.22525615533952 | 7.0557e-09 | au |
q | 1.857018936556494 | 7.1408e-08 | au |
i | 2.082005754854619 | 3.5307e-06 | deg |
node | 40.88794641443632 | 0.00010219 | deg |
peri | 245.7054907722447 | 0.0001029 | deg |
M | 331.1198441248414 | 1.4265e-05 | deg |
tp | 2459297.766989787046 (2021-Mar-24.26698979) | 4.8276e-05 | TDB |
period | 1212.462857704162 3.32 | 5.7666e-06 1.579e-08 | d yr |
n | .2969163118791712 | 1.4122e-09 | deg/d |
Q | 2.593493374122546 | 8.2233e-09 | au |
|
| | Orbit Determination Parameters
Additional Information
|